Zurück zum Katalog

KUIPER-00300

AktivKommunikationLEO
NORAD 68597·PAYLOAD·🇺🇸 United States

Gestartet Apr 4, 2026 von Cape Canaveral Space Force Station

Loading…

Nächste Überflüge (nächste 24 Stunden)

TLE

AktuellSource: CelesTrak SupGP

Epoche: Sep 14, 2026, 18:52 UTC

1 68597C 26072AA  26257.78619213 -.00001109  00000+0 -14511-3 0  2575
2 68597  51.9012 149.4546 0000851 105.4142 107.2897 14.79935295    18

Verfolge KUIPER-00300 in Echtzeit mit AllMySat

Download on the App Store